Regional Weather Roundup
Issued by NWS Wakefield, VA

Current Version | Previous Version | Text Only | Print | Product List | Glossary Off
Versions: 1 2 3 4 5 6 7 8 9 10 11 12 13 14 15 16 17 18 19 20 21 22 23 24 25 26 27 28

000
ASUS41 KAKQ 282315
RWRAKQ

REGIONAL WEATHER ROUNDUP
NATIONAL WEATHER SERVICE WAKEFIELD VA
700 PM EDT THU APR 28 2016

Note: "fair" indicates few or no clouds below 12,000 feet with no
significant weather and/or obstructions to visibility. * = Denotes
station may not report precipitation (e.g., rain,snow,etc.),
thunder or fog.

VAZ042-051-052>054-056-290000-
NORTHERN VIRGINIA

CITY           SKY/WX    TMP DP  RH WIND       PRES   REMARKS
WASH NATIONAL  CLOUDY    50  48  93 E8        29.99R
DULLES         DRIZZLE   50  48  93 E9        29.98R FOG
FORT BELVOIR   CLOUDY    51  49  93 VRB6      29.98R FOG
QUANTICO       CLOUDY    56  52  86 E8        29.97S
FREDERICKSBRG* CLOUDY    55  55 100 NE5       29.94S
STAFFORD*      CLOUDY    53  51  94 NE7       29.99S FOG
WARRENTON      CLOUDY    55  50  83 NE3       29.96R FOG
CULPEPER*      CLOUDY    54  54  98 NE3       29.98R FOG
MANASSAS*      CLOUDY    54  54 100 CALM      29.97R
LEESBURG*      CLOUDY    50  50 100 NE7       30.00R FOG
WINCHESTER     DRIZZLE   48  46  93 NE5       29.99R
FRONT ROYAL*   CLOUDY    50  50 100 NE6       29.96R
LURAY*         CLOUDY    54  54 100 N3        29.93S
$$

VAZ048-049-060>072-079>083-290000-
CENTRAL AND SOUTH CENTRAL VIRGINIA

CITY           SKY/WX    TMP DP  RH WIND       PRES   REMARKS
RICHMOND       DRIZZLE   56  56 100 NE8       29.90F FOG
CHESTERFIELD*  CLOUDY    59  46  63 NE6       29.91F
PETERSBURG*    CLOUDY    62  62 100 NE8       29.89F FOG
HANOVER        CLOUDY    56  53  90 NE6       29.92F FOG
TAPPAHANNOCK*  CLOUDY    56  56 100 E12       29.92F FOG
QUINTON*       CLOUDY    56  56  99 E8        29.90F FOG
CHARLOTTSVILLE LGT RAIN  56  54  93 NE8       29.95R FOG
GORDONSVILLE*  CLOUDY    55  55 100 NE5       29.94R
ORANGE*        CLOUDY    54  54 100 NE8       29.97R THUNDER
LOUISA*        LGT RAIN  59  57  94 NE3       29.92S
BUMPASS*       CLOUDY    55  54  97 N5        29.92F
FARMVILLE*     CLOUDY    60  60 100 NE8       29.89R THUNDER FOG
CREWE*         CLOUDY    60  60 100 NE3       29.88F
FORT PICKETT*  NOT AVBL
CHASE CITY*    CLOUDY    64  63  94 E6        29.86S
CLARKSVILLE*   CLOUDY    64  64 100 CALM      29.86R
SOUTH HILL*    CLOUDY    65  63  94 NE3       29.93R
LAWRENCEVILLE* CLOUDY    64  63  95 NE5       29.88R
EMPORIA*       CLOUDY    63  61  94 NE7       29.90R
$$

VAZ088>098-290000-
SOUTHEAST VIRGINIA

CITY           SKY/WX    TMP DP  RH WIND       PRES   REMARKS
NORFOLK        CLOUDY    55  53  93 NE10      29.90F FOG
VIRGINIA BEACH FOG       58  53  84 NE7       29.89F VSB 1/2
NORFOLK NAVAL  FOG       57  55  93 NE14      29.92F VSB 1/2
WEST POINT*    CLOUDY    56  55  94 NE5       29.94S
SALUDA*        CLOUDY    54  54 100 NE6       29.93F
NEWPORT NEWS   CLOUDY    57  55  93 NE9       29.91F FOG
LANGLEY AFB    CLOUDY    57  56  95 E10       29.90F
FORT EUSTIS    CLOUDY    58  57  99 E8        29.89S
WILLIAMSBURG*  CLOUDY    61  57  88 CALM      29.92F
HR EXEC AP*    CLOUDY    59  55  88 NE7       29.91F
FRANKLIN*      CLOUDY    60  58  91 NE9       29.88F
US460-WAKEFLD  CLOUDY    61  56  83 NE7       29.89F
$$

VAZ020-022-025-037-045-290000-
WEST CENTRAL AND SOUTHWEST VIRGINIA

CITY           SKY/WX    TMP DP  RH WIND       PRES   REMARKS
STAUNTON*      TSTM      58  58 100 N3        29.94S
WAYNESBORO*    CLOUDY    55  54  96 MISG      29.92S
HOT SPRINGS VA FOG       58  58 100 E5        29.93R VSB<1/4
LYNCHBURG      CLOUDY    58  58 100 N13       29.90R FOG
DANVILLE       PTSUNNY   70  67  90 E7        29.83S
SOUTH BOSTON*  CLOUDY    65  64  95 E5        29.86R
MARTINSVILLE   FAIR      74  62  64 CALM      29.85S
ROANOKE        PTSUNNY   67  61  81 E9        29.89R
BLACKSBURG     FAIR      76  52  42 NW7       29.90R
DUBLIN*        FAIR      78  51  39 W6        29.88R
MARION*        FAIR      74  51  44 SW14G23   29.93S
HILLSVILLE*    FAIR      75  46  35 W10       29.90R
RICHLANDS*     MOCLDY    72  36  26 SW13      29.92R
WISE*          FAIR      72  45  37 W14       29.95S
ABINGDON*      FAIR      76  51  41 W14       29.91R
$$

MDZ021>025-VAZ099-100-290000-
SOUTHERN MARYLAND AND THE DELMARVA PENINSULA

CITY           SKY/WX    TMP DP  RH WIND       PRES   REMARKS
PATUXENT RIVER DRIZZLE   50  48  93 NE12      29.97R FOG
BAY BRIDGE APT NOT AVBL
LEONARDTOWN    CLOUDY    50  48  93 NE6       29.98S
DOVER          CLOUDY    48  47  95 NE9       30.00S
GEORGETOWN     CLOUDY    49  47  93 NE8       29.99S FOG
EASTON         CLOUDY   N/A N/A N/A E7        30.03S FOG
CAMBRIDGE      CLOUDY    46  46 100 NE5       29.98S
SALISBURY      CLOUDY    50  50 100 E9        29.97S FOG
OCEAN CITY     CLOUDY    50  49  96 E12       29.97S FOG
WALLOPS ISLAND CLOUDY    52  51  97 NE15      29.96S FOG
ACCOMACK*      CLOUDY    52  -2  11 E10       29.94F HAZE
$$

NCZ012>017-030>032-290000-
NORTH CENTRAL AND EASTERN NORTH CAROLINA

CITY           SKY/WX    TMP DP  RH WIND       PRES   REMARKS
ROANOKE RAPIDS FAIR      68  64  88 NE8       29.85R
RALEIGH        CLOUDY    68  66  93 SE5       29.85R
ELIZABETH CITY CLEAR     67  63  87 NE12      29.87F
AHOSKIE*       CLOUDY    72  66  83 NE5       29.85S
EDENTON*       CLEAR     70  67  88 E9        29.86S
CURRITUCK*     CLOUDY    64  61  91 NE7       29.89F
KILL DEVIL HLS PTCLDY    68  60  75 NE5       29.87S
MANTEO         NOT AVBL
CAPE HATTERAS  CLOUDY    71  67  87 SW10      29.89R
TARBORO*       FAIR      77  69  76 E5        29.83F
GOLDSBORO      CLOUDY    81  63  54 SW7       29.82R
WASHINGTON     PTCLDY    80  65  59 SW3       29.82F
GREENVILLE     CLOUDY    81  66  61 W3        29.85S
NEW BERN       CLEAR     77  64  64 S12       29.86S
WILMINGTON     CLEAR     78  63  59 S16       29.89R
$$

VAZ048-290000-
ELSEWHERE

CITY           SKY/WX    TMP DP  RH WIND       PRES   REMARKS
HARRISBURG PA  DRIZZLE   46  43  89 E9        30.01S FOG
BALTIMORE      CLOUDY    50  41  71 E13       30.00S
ANNAPOLIS      CLOUDY    50  46  86 MISG      29.99F
ANDREWS AFB    CLOUDY    48  47  95 E9        29.98R FOG
PHILADELPHIA   CLOUDY    47  37  68 E7        30.05R
HENDERSON NC   LGT RAIN  69  69 100 NE7       29.85R
GREENSBORO     CLOUDY    73  63  70 CALM      29.83S
ROCKY MOUNT    CLOUDY    74  68  81 SE3       29.82F
$$

VAZ100-290000-
MARINE

STATION/POSITION TIME  TEMP    WIND        PRES    WAVE   SWELL
                       AIR SEA DIR/SP/G            HT/PER HT/PER
                 (UTC) (F)     (DEG/KT/KT) (MB)    (FT/S) (FT/S)
BRANDYWINE LGT   2200   49                 1015.8R
CAPE MAY NJ      2200   49 58              1015.4R
LEWES DE         2200   50 55              1015.7R
15NM E FENWICK I 2250   51 52              1014.6R   4/ 5
OCEAN-CITY-INLET 2200   51 54              1014.3R
WACHAPREAGUE VA  2200   53 60              1013.7R
THOMAS POINT MD  2300   47 58   60/ 13/ 15 1017.0R
GOOSES REEF MD   2200   50 58   80/ 14/ 16 1015.9R   2/ 3
COVE POINT MD    2200   49                 1015.1R
SOLOMONS ISLAND  2200   51 61                N/A
BISHOPS HEAD MD  2200   52 59              1014.1R
POTOMAC MD       2200   54 59  100/ 10/ 10 1013.5R   1/ 3
CAMBRIDGE MD     2200   49 61              1014.6R
LEWISETTA VA     2200   54 61              1013.8F
RAPPAHANNOCK LGT 2200                      1014.3R
STINGRAY PT      2200   55 62   70/ 10/ 12 1014.2R   1/ 3
YORK RVR RNG VA  2200   56                 1012.3F
YORKTOWN VA      2200   56 61              1012.7F
JAMESTOWN VA     2200   58 68   80/  6/ 10   N/A     0
DOMINION TERM VA 2200   57                 1012.8F
KIPTOPEKE VA     2200      61                N/A
CHES BAY BRIDGE  2200   55 59              1012.7F
CAPE HENRY VA    2200   54                   N/A
CHESAPEAKE LGHT  2200   53      30/ 14/ 14 1013.9R
WILLOUBY STN VA  2200   56                 1013.9S
CAPE HENRY BUOY  2212      56                N/A     3/ 5
CAPE CHARLES BUO 2226      56                N/A     3/ 5   2/ 7
OFFSHORE WE BUOY 2221      56                N/A     3/ 5   2/ 6
64NM E OF VA BCH 2250   56 56   20/  6/  6 1012.3F   3/ 6   2/ 6
DUCK PIER NC     2200   61 68              1011.5F
44100 DUCK FRF   2224      60                N/A     3/ 5
44056 DUCK FRF   2211      58                N/A     2/10
OREGON INLET NC  2200   70 67              1011.4S
HATTERAS NC      2200   71 69              1011.8S
DIAMOND SHLS NC  2250   74 72  210/ 17/ 21 1011.7F   4/ 4   2/11
CAPE LOOKOUT NC  2200   71     210/ 12/ 15 1011.9S
$$




USA.gov is the U.S. government's official web portal to all federal, state and local government web resources and services.